This is the latest recevied weather packets stored in our database for station/object DC4AT. If no packets are shown the sender has not sent any weather packets the latest 10 day(s).
| Time | Temp. | Humidity | Pressure | Rain* | Wind** | Luminosity | Snow |
|---|---|---|---|---|---|---|---|
| 1777910016 | 20° C | 67% | 1011.5 hPa | 0 mm | - | 88 W/m² | - |
| 1777909416 | 20.56° C | 64% | 1011.5 hPa | 0 mm | - | 97 W/m² | - |
| 1777908816 | 21.11° C | 62% | 1011.6 hPa | 0 mm | - | 105 W/m² | - |
| 1777908216 | 21.11° C | 61% | 1011.5 hPa | 0 mm | - | 91 W/m² | - |
| 1777907616 | 21.11° C | 61% | 1011.6 hPa | 0 mm | - | 90 W/m² | - |
| 1777907016 | 20.56° C | 58% | 1011.7 hPa | 0 mm | - | 121 W/m² | - |
| 1777906416 | 20.56° C | 59% | 1011.7 hPa | 0 mm | - | 144 W/m² | - |
| 1777905816 | 20.56° C | 56% | 1011.7 hPa | 0 mm | - | 132 W/m² | - |
| 1777905216 | 20.56° C | 56% | 1011.8 hPa | 0 mm | - | 165 W/m² | - |
| 1777904616 | 21.11° C | 55% | 1011.9 hPa | 0 mm | - | 188 W/m² | - |
| 1777904016 | 21.11° C | 54% | 1011.9 hPa | 0 mm | - | 185 W/m² | - |
| 1777903416 | 21.67° C | 55% | 1011.9 hPa | 0 mm | - | 638 W/m² | - |
| 1777902816 | 21.11° C | 55% | 1012 hPa | 0 mm | - | 265 W/m² | - |
| 1777902216 | 20.56° C | 59% | 1012.1 hPa | 0 mm | - | 670 W/m² | - |
| 1777901616 | 20.56° C | 59% | 1012.1 hPa | 0 mm | - | 599 W/m² | - |
| 1777901016 | 20.56° C | 62% | 1012.2 hPa | 0 mm | - | 629 W/m² | - |
| 1777900416 | 20.56° C | 59% | 1012.2 hPa | 0 mm | - | 659 W/m² | - |
| 1777899816 | 20° C | 61% | 1012.3 hPa | 0 mm | - | 670 W/m² | - |
| 1777899216 | 20.56° C | 60% | 1012.4 hPa | 0 mm | - | 701 W/m² | - |
| 1777898616 | 20.56° C | 58% | 1012.4 hPa | 0 mm | - | 763 W/m² | - |
| 1777898016 | 20.56° C | 58% | 1012.6 hPa | 0 mm | - | 638 W/m² | - |
| 1777897416 | 20.56° C | 58% | 1012.6 hPa | 0 mm | - | 817 W/m² | - |
| 1777896816 | 20° C | 60% | 1012.7 hPa | 0 mm | - | 837 W/m² | - |
| 1777896216 | 20° C | 59% | 1012.7 hPa | 0 mm | - | 740 W/m² | - |
| 1777895616 | 20° C | 61% | 1012.9 hPa | 0 mm | - | 580 W/m² | - |
* Rain latest hour (hover to see other rain measurements)
** Current wind speed in m/s (hover to see current wind gust speed)